| time (UTC) | temp F | wind direction | speed knots | gust knots | rain 1hr in | rain 24hr in | rain mn in | humidity % | barometer mb |
| 20260508230903 | 55 | 214 | 4.3 | 9.6 | 0.01 | 0.15 | 0.14 | 92 | 1009.2 |
| 20260508230024 | 55 | 207 | 4.3 | 12.2 | 0.02 | 0.15 | 0.14 | 91 | 1009.1 |
| 20260508225403 | 55 | 214 | 4.3 | 10.4 | 0.03 | 0.15 | 0.14 | 91 | 1009.2 |
| 20260508224504 | 55 | 209 | 4.3 | 9.6 | 0.04 | 0.15 | 0.14 | 91 | 1009.1 |
| 20260508223603 | 55 | 215 | 3.5 | 9.6 | 0.03 | 0.14 | 0.13 | 91 | 1009.3 |
| 20260508222703 | 55 | 218 | 2.6 | 6.1 | 0.04 | 0.14 | 0.13 | 91 | 1009.2 |
| 20260508221824 | 54 | 217 | 3.5 | 12.2 | 0.05 | 0.14 | 0.13 | 91 | 1009.3 |
| 20260508220903 | 55 | 217 | 4.3 | 12.2 | 0.06 | 0.14 | 0.13 | 90 | 1009.4 |
| 20260508220004 | 55 | 217 | 3.5 | 8.7 | 0.05 | 0.13 | 0.12 | 90 | 1009.5 |
| 20260508215424 | 55 | 220 | 2.6 | 7.8 | 0.05 | 0.12 | 0.11 | 90 | 1009.6 |
| 20260508214503 | 55 | 224 | 2.6 | 7.8 | 0.04 | 0.11 | 0.10 | 90 | 1009.6 |
| 20260508213604 | 55 | 227 | 2.6 | 7.8 | 0.04 | 0.11 | 0.10 | 90 | 1009.6 |
| 20260508212703 | 55 | 240 | 1.7 | 7.0 | 0.03 | 0.10 | 0.09 | 89 | 1009.7 |
| 20260508211824 | 56 | 251 | 2.6 | 7.8 | 0.03 | 0.09 | 0.08 | 87 | 1009.8 |
| 20260508210903 | 56 | 258 | 2.6 | 8.7 | 0.02 | 0.08 | 0.07 | 86 | 1009.8 |
| 20260508210024 | 56 | 244 | 3.5 | 13.0 | 0.02 | 0.08 | 0.07 | 85 | 1009.8 |
| 20260508205403 | 57 | 243 | 2.6 | 7.8 | 0.01 | 0.07 | 0.06 | 85 | 1009.8 |
| 20260508204503 | 57 | 226 | 3.5 | 10.4 | 0.01 | 0.07 | 0.06 | 84 | 1009.8 |
| 20260508203603 | 57 | 231 | 3.5 | 9.6 | 0.01 | 0.07 | 0.06 | 83 | 1009.8 |
| 20260508202704 | 58 | 219 | 5.2 | 12.2 | 0.01 | 0.07 | 0.06 | 80 | 1009.7 |
| 20260508201824 | 58 | 214 | 5.2 | 13.9 | 0.00 | 0.06 | 0.05 | 78 | 1009.9 |
| 20260508200903 | 59 | 211 | 3.5 | 9.6 | 0.00 | 0.06 | 0.05 | 77 | 1010.0 |
| 20260508200004 | 59 | 188 | 1.7 | 6.1 | 0.00 | 0.06 | 0.05 | 75 | 1009.9 |
| 20260508195403 | 58 | 160 | 0.9 | 3.5 | 0.00 | 0.06 | 0.05 | 76 | 1009.9 |
| 20260508194503 | 58 | 72 | 0.9 | 2.6 | 0.00 | 0.06 | 0.05 | 78 | 1009.8 |
| 20260508193603 | 58 | 13 | 0.9 | 3.5 | 0.00 | 0.06 | 0.05 | 77 | 1010.0 |
| 20260508192704 | 58 | 35 | 1.7 | 3.5 | 0.00 | 0.06 | 0.05 | 77 | 1010.1 |
| 20260508191824 | 58 | 48 | 0.9 | 3.5 | 0.00 | 0.06 | 0.05 | 76 | 1010.1 |
| 20260508190903 | 58 | 72 | 0.9 | 3.5 | 0.00 | 0.06 | 0.05 | 75 | 1010.3 |
| 20260508190003 | 57 | 70 | 0.9 | 2.6 | 0.00 | 0.06 | 0.05 | 76 | 1010.5 |
| 20260508185424 | 57 | 78 | 0.9 | 3.5 | 0.00 | 0.06 | 0.05 | 77 | 1010.6 |
| 20260508184504 | 57 | 60 | 0.9 | 3.5 | 0.00 | 0.06 | 0.05 | 79 | 1010.8 |
| 20260508183603 | 57 | 36 | 0.9 | 2.6 | 0.00 | 0.06 | 0.05 | 79 | 1010.8 |
| 20260508182703 | 57 | 328 | 0.0 | 1.7 | 0.00 | 0.06 | 0.05 | 78 | 1010.9 |
| 20260508181803 | 56 | 0 | 0.0 | 0.0 | 0.00 | 0.06 | 0.05 | 79 | 1011.0 |
| 20260508180903 | 56 | 264 | 0.0 | 0.9 | 0.00 | 0.06 | 0.05 | 79 | 1011.2 |
| 20260508180003 | 56 | 264 | 0.0 | 1.7 | 0.00 | 0.06 | 0.05 | 78 | 1011.3 |
| 20260508175403 | 56 | 264 | 0.0 | 1.7 | 0.00 | 0.06 | 0.05 | 80 | 1011.4 |
| 20260508174503 | 55 | 268 | 0.0 | 1.7 | 0.00 | 0.06 | 0.05 | 80 | 1011.6 |
| 20260508173603 | 55 | 242 | 0.0 | 1.7 | 0.00 | 0.06 | 0.05 | 81 | 1011.8 |
| 20260508172703 | 55 | 270 | 0.0 | 2.6 | 0.00 | 0.06 | 0.05 | 80 | 1012.1 |
| 20260508171803 | 55 | 222 | 0.0 | 2.6 | 0.00 | 0.06 | 0.05 | 80 | 1012.1 |
| 20260508170903 | 56 | 244 | 1.7 | 5.2 | 0.00 | 0.06 | 0.05 | 78 | 1012.1 |
| 20260508170003 | 56 | 218 | 3.5 | 9.6 | 0.00 | 0.06 | 0.05 | 77 | 1012.2 |
| 20260508165403 | 56 | 215 | 5.2 | 10.4 | 0.00 | 0.06 | 0.05 | 78 | 1012.1 |
| 20260508164503 | 55 | 209 | 3.5 | 9.6 | 0.00 | 0.06 | 0.05 | 82 | 1012.1 |
| 20260508163603 | 54 | 217 | 2.6 | 7.0 | 0.01 | 0.06 | 0.05 | 88 | 1012.3 |
| 20260508162703 | 53 | 222 | 2.6 | 7.0 | 0.02 | 0.06 | 0.05 | 89 | 1012.5 |
| 20260508161826 | 51 | 223 | 1.7 | 10.4 | 0.03 | 0.06 | 0.05 | 90 | 1012.8 |
| 20260508160924 | 50 | 209 | 1.7 | 7.8 | 0.04 | 0.06 | 0.05 | 90 | 1012.9 |
| 20260508160004 | 50 | 220 | 1.7 | 5.2 | 0.04 | 0.06 | 0.05 | 90 | 1013.0 |
| 20260508155403 | 50 | 216 | 1.7 | 5.2 | 0.04 | 0.06 | 0.05 | 90 | 1013.1 |
| 20260508154504 | 50 | 208 | 1.7 | 6.1 | 0.05 | 0.06 | 0.05 | 89 | 1013.2 |
| 20260508153603 | 50 | 232 | 1.7 | 6.1 | 0.04 | 0.05 | 0.04 | 88 | 1013.2 |
| 20260508152703 | 50 | 249 | 0.9 | 6.1 | 0.03 | 0.04 | 0.03 | 87 | 1013.3 |
| 20260508151803 | 50 | 239 | 1.7 | 7.0 | 0.02 | 0.03 | 0.02 | 87 | 1013.4 |
| 20260508150903 | 50 | 235 | 2.6 | 8.7 | 0.01 | 0.02 | 0.01 | 86 | 1013.5 |
| 20260508150004 | 51 | 234 | 2.6 | 7.0 | 0.01 | 0.02 | 0.01 | 85 | 1013.5 |
| 20260508145403 | 51 | 234 | 1.7 | 7.0 | 0.01 | 0.02 | 0.01 | 85 | 1013.5 |
| 20260508144503 | 51 | 231 | 2.6 | 8.7 | 0.00 | 0.01 | 0.00 | 83 | 1013.7 |
| 20260508143603 | 51 | 220 | 3.5 | 7.0 | 0.00 | 0.01 | 0.00 | 81 | 1013.4 |
| 20260508142703 | 52 | 216 | 1.7 | 6.1 | 0.00 | 0.01 | 0.00 | 80 | 1012.9 |
| 20260508141803 | 52 | 236 | 0.9 | 4.3 | 0.00 | 0.01 | 0.00 | 79 | 1013.1 |
| 20260508140903 | 52 | 232 | 0.9 | 3.5 | 0.00 | 0.01 | 0.00 | 78 | 1013.2 |
| 20260508140004 | 52 | 232 | 0.9 | 5.2 | 0.00 | 0.01 | 0.00 | 77 | 1013.2 |
| 20260508135403 | 52 | 224 | 1.7 | 6.1 | 0.00 | 0.01 | 0.00 | 77 | 1013.1 |
| 20260508134503 | 52 | 234 | 0.9 | 7.0 | 0.00 | 0.01 | 0.00 | 76 | 1012.9 |
| 20260508133603 | 52 | 237 | 1.7 | 7.0 | 0.00 | 0.01 | 0.00 | 76 | 1013.1 |
| 20260508132703 | 52 | 235 | 1.7 | 7.0 | 0.00 | 0.01 | 0.00 | 76 | 1013.2 |
| 20260508131803 | 52 | 219 | 1.7 | 7.0 | 0.00 | 0.01 | 0.00 | 76 | 1012.9 |
| 20260508130903 | 51 | 223 | 1.7 | 8.7 | 0.00 | 0.01 | 0.00 | 76 | 1013.1 |
| 20260508130004 | 51 | 218 | 1.7 | 7.0 | 0.00 | 0.01 | 0.00 | 76 | 1013.2 |
| 20260508125403 | 51 | 212 | 1.7 | 7.0 | 0.00 | 0.01 | 0.00 | 77 | 1013.0 |
| 20260508124503 | 51 | 219 | 2.6 | 7.0 | 0.00 | 0.01 | 0.00 | 77 | 1013.1 |
| 20260508123603 | 51 | 221 | 1.7 | 7.0 | 0.00 | 0.01 | 0.00 | 76 | 1012.9 |
| 20260508122724 | 51 | 217 | 1.7 | 5.2 | 0.00 | 0.01 | 0.00 | 77 | 1012.9 |
| 20260508121803 | 50 | 226 | 1.7 | 6.1 | 0.00 | 0.01 | 0.00 | 77 | 1012.9 |
| 20260508120903 | 50 | 219 | 1.7 | 6.1 | 0.00 | 0.01 | 0.00 | 77 | 1012.9 |
| 20260508120004 | 50 | 226 | 1.7 | 6.1 | 0.00 | 0.01 | 0.00 | 78 | 1012.9 |
| 20260508115403 | 50 | 242 | 1.7 | 7.8 | 0.00 | 0.01 | 0.00 | 77 | 1012.8 |
| 20260508114503 | 49 | 240 | 1.7 | 7.8 | 0.00 | 0.01 | 0.00 | 77 | 1012.8 |
| 20260508113624 | 49 | 231 | 1.7 | 6.1 | 0.00 | 0.01 | 0.00 | 77 | 1012.7 |
| 20260508112703 | 49 | 226 | 0.9 | 4.3 | 0.00 | 0.01 | 0.00 | 77 | 1012.5 |
| 20260508111803 | 49 | 223 | 1.7 | 7.0 | 0.00 | 0.01 | 0.00 | 77 | 1012.5 |
| 20260508110903 | 49 | 224 | 3.5 | 8.7 | 0.00 | 0.01 | 0.00 | 77 | 1012.4 |
| 20260508110003 | 48 | 225 | 1.7 | 6.1 | 0.00 | 0.01 | 0.00 | 77 | 1012.3 |
| 20260508105403 | 48 | 225 | 2.6 | 6.1 | 0.00 | 0.01 | 0.00 | 77 | 1012.2 |
| 20260508104503 | 48 | 221 | 2.6 | 9.6 | 0.00 | 0.01 | 0.00 | 77 | 1012.3 |
| 20260508103603 | 48 | 221 | 1.7 | 7.8 | 0.00 | 0.01 | 0.00 | 77 | 1012.3 |
| 20260508102724 | 48 | 220 | 2.6 | 9.6 | 0.00 | 0.01 | 0.00 | 77 | 1012.2 |
| 20260508101803 | 48 | 225 | 2.6 | 7.0 | 0.00 | 0.01 | 0.00 | 77 | 1012.2 |
| 20260508100903 | 48 | 232 | 1.7 | 7.0 | 0.00 | 0.01 | 0.00 | 76 | 1012.1 |
| 20260508100003 | 48 | 226 | 2.6 | 7.0 | 0.00 | 0.01 | 0.00 | 76 | 1012.1 |
| 20260508095424 | 48 | 229 | 2.6 | 7.0 | 0.00 | 0.01 | 0.00 | 76 | 1012.2 |
| 20260508094503 | 48 | 228 | 2.6 | 6.1 | 0.00 | 0.01 | 0.00 | 76 | 1012.3 |
| 20260508093603 | 48 | 223 | 2.6 | 7.0 | 0.00 | 0.01 | 0.00 | 75 | 1012.4 |
| 20260508092703 | 48 | 225 | 2.6 | 7.8 | 0.00 | 0.01 | 0.00 | 75 | 1012.4 |
| 20260508091803 | 48 | 230 | 3.5 | 9.6 | 0.00 | 0.01 | 0.00 | 75 | 1012.3 |
| 20260508090903 | 48 | 225 | 3.5 | 8.7 | 0.00 | 0.01 | 0.00 | 76 | 1012.4 |
| 20260508090004 | 48 | 230 | 2.6 | 7.8 | 0.00 | 0.01 | 0.00 | 76 | 1012.5 |
| 20260508085403 | 48 | 224 | 2.6 | 7.8 | 0.00 | 0.01 | 0.00 | 76 | 1012.4 |
| 20260508084503 | 47 | 224 | 3.5 | 10.4 | 0.00 | 0.01 | 0.00 | 76 | 1012.4 |
| 20260508083603 | 47 | 224 | 3.5 | 9.6 | 0.00 | 0.01 | 0.00 | 78 | 1012.4 |
| 20260508082703 | 47 | 220 | 2.6 | 7.0 | 0.00 | 0.01 | 0.00 | 79 | 1012.3 |
| 20260508081803 | 46 | 224 | 3.5 | 7.8 | 0.00 | 0.01 | 0.00 | 81 | 1012.3 |
| 20260508080924 | 46 | 217 | 2.6 | 7.8 | 0.00 | 0.01 | 0.00 | 82 | 1012.3 |
| 20260508080003 | 46 | 214 | 2.6 | 5.2 | 0.00 | 0.01 | 0.00 | 83 | 1012.3 |
| 20260508075403 | 46 | 212 | 1.7 | 5.2 | 0.00 | 0.01 | 0.00 | 83 | 1012.3 |
| 20260508074503 | 46 | 215 | 2.6 | 5.2 | 0.00 | 0.01 | 0.00 | 84 | 1012.4 |
| 20260508073603 | 46 | 211 | 1.7 | 5.2 | 0.00 | 0.01 | 0.00 | 85 | 1012.4 |
| 20260508072703 | 46 | 206 | 2.6 | 6.1 | 0.00 | 0.01 | 0.00 | 86 | 1012.5 |
| 20260508071824 | 46 | 213 | 1.7 | 5.2 | 0.00 | 0.01 | 0.00 | 86 | 1012.6 |
| 20260508070903 | 46 | 220 | 0.9 | 4.3 | 0.00 | 0.01 | 0.00 | 87 | 1012.6 |
| 20260508070003 | 46 | 213 | 1.7 | 5.2 | 0.00 | 0.01 | 0.00 | 87 | 1012.7 |
| 20260508065403 | 46 | 207 | 0.9 | 3.5 | 0.00 | 0.01 | 0.00 | 87 | 1012.7 |
| 20260508064503 | 46 | 207 | 0.9 | 2.6 | 0.00 | 0.01 | 0.00 | 87 | 1012.8 |
| 20260508063603 | 46 | 199 | 0.9 | 3.5 | 0.00 | 0.01 | 0.00 | 87 | 1012.8 |
| 20260508062703 | 46 | 197 | 0.9 | 3.5 | 0.00 | 0.01 | 0.00 | 87 | 1012.9 |
| 20260508061803 | 46 | 203 | 0.9 | 2.6 | 0.00 | 0.01 | 0.00 | 87 | 1013.0 |
| 20260508060903 | 46 | 194 | 0.9 | 2.6 | 0.00 | 0.01 | 0.00 | 86 | 1013.0 |
| 20260508060003 | 47 | 198 | 0.9 | 4.3 | 0.00 | 0.01 | 0.00 | 86 | 1013.2 |
| 20260508055403 | 47 | 197 | 0.9 | 3.5 | 0.00 | 0.01 | 0.00 | 86 | 1013.2 |
| 20260508054503 | 47 | 194 | 0.0 | 2.6 | 0.00 | 0.01 | 0.00 | 86 | 1013.3 |
| 20260508053603 | 47 | 194 | 0.9 | 3.5 | 0.00 | 0.01 | 0.00 | 86 | 1013.3 |
| 20260508052703 | 47 | 196 | 0.9 | 3.5 | 0.00 | 0.01 | 0.00 | 86 | 1013.3 |
| 20260508051803 | 47 | 194 | 0.9 | 3.5 | 0.00 | 0.01 | 0.00 | 85 | 1013.4 |
| 20260508050903 | 48 | 200 | 0.9 | 2.6 | 0.00 | 0.01 | 0.00 | 85 | 1013.4 |
| 20260508050003 | 48 | 203 | 0.9 | 2.6 | 0.00 | 0.01 | 0.00 | 84 | 1013.5 |
| 20260508045403 | 48 | 205 | 0.9 | 1.7 | 0.00 | 0.01 | 0.00 | 84 | 1013.6 |
| 20260508044524 | 48 | 208 | 0.0 | 2.6 | 0.00 | 0.01 | 0.00 | 84 | 1013.5 |
| 20260508043603 | 48 | 209 | 0.0 | 2.6 | 0.00 | 0.01 | 0.00 | 84 | 1013.4 |
| 20260508042703 | 49 | 0 | 0.0 | 0.0 | 0.00 | 0.01 | 0.00 | 83 | 1013.5 |
| 20260508041803 | 49 | 0 | 0.0 | 0.0 | 0.01 | 0.01 | 0.00 | 83 | 1013.6 |
| 20260508040903 | 49 | 285 | 0.0 | 0.9 | 0.01 | 0.01 | 0.00 | 82 | 1013.6 |
| 20260508040004 | 49 | 285 | 0.0 | 0.9 | 0.01 | 0.01 | 0.00 | 81 | 1013.7 |
| 20260508035403 | 49 | 307 | 0.9 | 2.6 | 0.01 | 0.01 | 0.01 | 81 | 1013.7 |
| 20260508034503 | 49 | 277 | 1.7 | 7.0 | 0.01 | 0.01 | 0.01 | 80 | 1014.0 |
| 20260508033603 | 49 | 255 | 0.9 | 7.0 | 0.01 | 0.01 | 0.01 | 79 | 1014.1 |
| 20260508032703 | 50 | 281 | 1.7 | 6.1 | 0.01 | 0.01 | 0.01 | 78 | 1014.2 |
| 20260508031803 | 50 | 224 | 2.6 | 6.1 | 0.00 | 0.00 | 0.00 | 76 | 1013.8 |
| 20260508030903 | 50 | 218 | 1.7 | 6.1 | 0.00 | 0.00 | 0.00 | 75 | 1013.2 |
| 20260508030004 | 51 | 212 | 4.3 | 8.7 | 0.00 | 0.00 | 0.00 | 72 | 1013.2 |
| 20260508025403 | 51 | 210 | 3.5 | 7.8 | 0.00 | 0.00 | 0.00 | 71 | 1013.2 |
| 20260508024503 | 50 | 204 | 1.7 | 5.2 | 0.00 | 0.00 | 0.00 | 71 | 1013.1 |
| 20260508023624 | 50 | 201 | 1.7 | 7.0 | 0.00 | 0.00 | 0.00 | 71 | 1013.1 |
| 20260508022703 | 50 | 204 | 1.7 | 6.1 | 0.00 | 0.00 | 0.00 | 70 | 1013.1 |
| 20260508021803 | 51 | 201 | 0.9 | 4.3 | 0.00 | 0.00 | 0.00 | 70 | 1013.0 |
| 20260508020924 | 51 | 210 | 2.6 | 7.0 | 0.00 | 0.00 | 0.00 | 69 | 1013.0 |
| 20260508020003 | 51 | 210 | 1.7 | 5.2 | 0.00 | 0.00 | 0.00 | 68 | 1013.1 |
| 20260508015403 | 51 | 211 | 1.7 | 6.1 | 0.00 | 0.00 | 0.00 | 67 | 1013.1 |
| 20260508014504 | 51 | 205 | 1.7 | 5.2 | 0.00 | 0.00 | 0.00 | 66 | 1013.1 |
| 20260508013603 | 52 | 211 | 1.7 | 4.3 | 0.00 | 0.00 | 0.00 | 65 | 1013.1 |
| 20260508012724 | 52 | 199 | 1.7 | 7.0 | 0.00 | 0.00 | 0.00 | 64 | 1013.1 |
| 20260508011824 | 52 | 204 | 0.9 | 6.1 | 0.00 | 0.00 | 0.00 | 63 | 1013.0 |
| 20260508010903 | 52 | 204 | 0.9 | 3.5 | 0.00 | 0.00 | 0.00 | 63 | 1013.1 |
| 20260508010003 | 52 | 215 | 1.7 | 5.2 | 0.00 | 0.00 | 0.00 | 61 | 1013.1 |
| 20260508005403 | 52 | 207 | 0.9 | 3.5 | 0.00 | 0.00 | 0.00 | 62 | 1013.2 |
| 20260508004503 | 52 | 217 | 0.9 | 4.3 | 0.00 | 0.00 | 0.00 | 62 | 1013.2 |
| 20260508003603 | 52 | 221 | 0.9 | 3.5 | 0.00 | 0.00 | 0.00 | 61 | 1013.1 |
| 20260508002703 | 52 | 241 | 0.9 | 4.3 | 0.00 | 0.00 | 0.00 | 60 | 1013.1 |
| 20260508001803 | 53 | 283 | 0.0 | 2.6 | 0.00 | 0.00 | 0.00 | 59 | 1013.0 |
| 20260508000903 | 53 | 260 | 0.0 | 2.6 | 0.00 | 0.00 | 0.00 | 58 | 1013.1 |
| 20260508000024 | 53 | 281 | 0.0 | 2.6 | 0.00 | 0.00 | 0.00 | 58 | 1013.1 |
| 20260507235403 | 53 | 292 | 0.9 | 2.6 | 0.00 | 0.00 | 0.00 | 57 | 1013.0 |
| 20260507234503 | 53 | 271 | 0.9 | 7.0 | 0.00 | 0.00 | 0.00 | 56 | 1013.1 |
| 20260507233603 | 53 | 280 | 1.7 | 7.0 | 0.00 | 0.00 | 0.00 | 56 | 1013.1 |
| 20260507232726 | 53 | 307 | 0.9 | 4.3 | 0.00 | 0.00 | 0.00 | 57 | 1013.2 |
| 20260507231803 | 53 | 274 | 1.7 | 7.0 | 0.00 | 0.00 | 0.00 | 56 | 1013.6 |